sat.trackr.live / text

‹ back to catalog

ONEWEB-0236

NORAD 48797 · 2021-045AG

PAYLOAD ACTIVE UNKNOWN

§ Identity

Operator
Country
UK
Launch date
2021-05-28
Launch site
VOSTO
Launch vehicle
Mass (kg)
RCS (m²)

Purposes: comms

External: N2YO · Heavens-Above · Gunter

§ Orbital elements

Epoch: 2026-05-24T19:49:45.577344Z

Period
109.46 min
Inclination
87.8988°
Eccentricity
0.0001930
Mean motion
13.15546484 rev/d
Perigee alt
1,200.3 km
Apogee alt
1,203.2 km
Semi-major
7,579.9 km
B*
-4.4362e-4
RAAN
263.8620°
Arg perigee
104.3700°
Mean anomaly
255.7645°
Rev number
24,118

§ Raw data

ONEWEB-02361 48797U 21045AG  26144.82622196 -.00000154  00000+0 -44362-3 0  99932 48797  87.8988 263.8620 0001930 104.3700 255.7645 13.15546484241181

JSON: /api/v1/satellites/48797 · /tle

For live sub-satellite position, see the globe view (requires WebGL).

§ Visibility from observer

Set your observer location to see the next 7 days of passes ≥ 10°. The values pass through the URL so the page stays shareable.

No JS? Fill the form by hand. The geolocation button needs JavaScript.